Airport Information

KLKV - Lake County Airport

KLKV 191753Z AUTO VRB04KT 10SM CLR 21/02 A3016 RMK AO2 SLP177 T02060017 10206 20039 58003


  • General Information

  • Coordinates: N 42°9'39"/ W 120°23'56"
  • Location: N/A
  • Surveyed Elevation: 4733 MSL

Operations

Flow Name Active Runways Conditions

Green background denotes normal operations.


Common Frequencies

Callsign Frequency Position Name

More at the Document Center


Charts